Year,Month,Day,Hour,Minute,Value (Times are PST for temperature in C)
2015,07,19,00,00,19.40
2015,07,19,00,01,19.30
2015,07,19,00,02,19.30
2015,07,19,00,03,19.30
2015,07,19,00,04,19.30
2015,07,19,00,05,19.30
2015,07,19,00,06,19.20
2015,07,19,00,07,19.20
2015,07,19,00,08,19.20
2015,07,19,00,09,19.20
2015,07,19,00,10,19.20
2015,07,19,00,11,19.20
2015,07,19,00,12,19.20
2015,07,19,00,13,19.20
2015,07,19,00,14,19.20
2015,07,19,00,15,19.20
2015,07,19,00,16,19.30
2015,07,19,00,17,19.30
2015,07,19,00,18,19.30
2015,07,19,00,19,19.30
2015,07,19,00,20,19.30
2015,07,19,00,21,19.30
2015,07,19,00,22,19.30
2015,07,19,00,23,19.40
2015,07,19,00,24,19.40
2015,07,19,00,25,19.40
2015,07,19,00,26,19.40
2015,07,19,00,27,19.40
2015,07,19,00,28,19.40
2015,07,19,00,29,19.30
2015,07,19,00,30,19.30
2015,07,19,00,31,19.30
2015,07,19,00,32,19.30
2015,07,19,00,33,19.30
2015,07,19,00,34,19.30
2015,07,19,00,35,19.30
2015,07,19,00,36,19.30
2015,07,19,00,37,19.30
2015,07,19,00,38,19.30
2015,07,19,00,39,19.30
2015,07,19,00,40,19.30
2015,07,19,00,41,19.20
2015,07,19,00,42,19.20
2015,07,19,00,43,19.20
2015,07,19,00,44,19.20
2015,07,19,00,45,19.20
2015,07,19,00,46,19.20
2015,07,19,00,47,19.20
2015,07,19,00,48,19.20
2015,07,19,00,49,19.20
2015,07,19,00,50,19.10
2015,07,19,00,51,19.10
2015,07,19,00,52,19.10
2015,07,19,00,53,19.10
2015,07,19,00,54,19.10
2015,07,19,00,55,19.00
2015,07,19,00,56,19.00
2015,07,19,00,57,19.00
2015,07,19,00,58,18.90
2015,07,19,00,59,18.90
2015,07,19,01,00,18.90
2015,07,19,01,01,18.90
2015,07,19,01,02,18.80
2015,07,19,01,03,18.80
2015,07,19,01,04,18.80
2015,07,19,01,05,18.80
2015,07,19,01,06,18.80
2015,07,19,01,07,18.80
2015,07,19,01,08,18.80
2015,07,19,01,09,18.70
2015,07,19,01,10,18.70
2015,07,19,01,11,18.70
2015,07,19,01,12,18.70
2015,07,19,01,13,18.70
2015,07,19,01,14,18.70
2015,07,19,01,15,18.60
2015,07,19,01,16,18.60
2015,07,19,01,17,18.60
2015,07,19,01,18,18.60
2015,07,19,01,19,18.60
2015,07,19,01,20,18.60
2015,07,19,01,21,18.60
2015,07,19,01,22,18.60
2015,07,19,01,23,18.60
2015,07,19,01,24,18.50
2015,07,19,01,25,18.50
2015,07,19,01,26,18.50
2015,07,19,01,27,18.50
2015,07,19,01,28,18.50
2015,07,19,01,29,18.40
2015,07,19,01,30,18.40
2015,07,19,01,31,18.40
2015,07,19,01,32,18.40
2015,07,19,01,33,18.40
2015,07,19,01,34,18.40
2015,07,19,01,35,18.40
2015,07,19,01,36,18.40
2015,07,19,01,37,18.40
2015,07,19,01,38,18.40
2015,07,19,01,39,18.40
2015,07,19,01,40,18.40
2015,07,19,01,41,18.40
2015,07,19,01,42,18.40
2015,07,19,01,43,18.40
2015,07,19,01,44,18.40
2015,07,19,01,45,18.30
2015,07,19,01,46,18.30
2015,07,19,01,47,18.30
2015,07,19,01,48,18.30
2015,07,19,01,49,18.30
2015,07,19,01,50,18.30
2015,07,19,01,51,18.20
2015,07,19,01,52,18.20
2015,07,19,01,53,18.20
2015,07,19,01,54,18.20
2015,07,19,01,55,18.20
2015,07,19,01,56,18.20
2015,07,19,01,57,18.10
2015,07,19,01,58,18.10
2015,07,19,01,59,18.10
2015,07,19,02,00,18.10
2015,07,19,02,01,18.00
2015,07,19,02,02,18.00
2015,07,19,02,03,18.00
2015,07,19,02,04,17.90
2015,07,19,02,05,17.90
2015,07,19,02,06,17.90
2015,07,19,02,07,17.90
2015,07,19,02,08,17.80
2015,07,19,02,09,17.80
2015,07,19,02,10,17.80
2015,07,19,02,11,17.80
2015,07,19,02,12,17.80
2015,07,19,02,13,17.70
2015,07,19,02,14,17.70
2015,07,19,02,15,17.70
2015,07,19,02,16,17.70
2015,07,19,02,17,17.70
2015,07,19,02,18,17.70
2015,07,19,02,19,17.70
2015,07,19,02,20,17.70
2015,07,19,02,21,17.70
2015,07,19,02,22,17.70
2015,07,19,02,23,17.60
2015,07,19,02,24,17.60
2015,07,19,02,25,17.70
2015,07,19,02,26,17.70
2015,07,19,02,27,17.70
2015,07,19,02,28,17.70
2015,07,19,02,29,17.70
2015,07,19,02,30,17.70
2015,07,19,02,31,17.70
2015,07,19,02,32,17.70
2015,07,19,02,33,17.70
2015,07,19,02,34,17.70
2015,07,19,02,35,17.70
2015,07,19,02,36,17.70
2015,07,19,02,37,17.60
2015,07,19,02,38,17.60
2015,07,19,02,39,17.60
2015,07,19,02,40,17.60
2015,07,19,02,41,17.60
2015,07,19,02,42,17.60
2015,07,19,02,43,17.60
2015,07,19,02,44,17.60
2015,07,19,02,45,17.50
2015,07,19,02,46,17.50
2015,07,19,02,47,17.40
2015,07,19,02,48,17.40
2015,07,19,02,49,17.40
2015,07,19,02,50,17.40
2015,07,19,02,51,17.40
2015,07,19,02,52,17.40
2015,07,19,02,53,17.40
2015,07,19,02,54,17.40
2015,07,19,02,55,17.40
2015,07,19,02,56,17.40
2015,07,19,02,57,17.30
2015,07,19,02,58,17.30
2015,07,19,02,59,17.30
2015,07,19,03,00,17.30
2015,07,19,03,01,17.30
2015,07,19,03,02,17.30
2015,07,19,03,03,17.30
2015,07,19,03,04,17.30
2015,07,19,03,05,17.30
2015,07,19,03,06,17.30
2015,07,19,03,07,17.30
2015,07,19,03,08,17.20
2015,07,19,03,09,17.30
2015,07,19,03,10,17.30
2015,07,19,03,11,17.30
2015,07,19,03,12,17.30
2015,07,19,03,13,17.30
2015,07,19,03,14,17.30
2015,07,19,03,15,17.30
2015,07,19,03,16,17.30
2015,07,19,03,17,17.30
2015,07,19,03,18,17.30
2015,07,19,03,19,17.40
2015,07,19,03,20,17.40
2015,07,19,03,21,17.40
2015,07,19,03,22,17.40
2015,07,19,03,23,17.40
2015,07,19,03,24,17.40
2015,07,19,03,25,17.30
2015,07,19,03,26,17.30
2015,07,19,03,27,17.30
2015,07,19,03,28,17.30
2015,07,19,03,29,17.30
2015,07,19,03,30,17.30
2015,07,19,03,31,17.30
2015,07,19,03,32,17.30
2015,07,19,03,33,17.20
2015,07,19,03,34,17.20
2015,07,19,03,35,17.20
2015,07,19,03,36,17.20
2015,07,19,03,37,17.10
2015,07,19,03,38,17.10
2015,07,19,03,39,17.10
2015,07,19,03,40,17.10
2015,07,19,03,41,17.10
2015,07,19,03,42,17.10
2015,07,19,03,43,17.10
2015,07,19,03,44,17.00
2015,07,19,03,45,17.00
2015,07,19,03,46,17.00
2015,07,19,03,47,17.00
2015,07,19,03,48,16.90
2015,07,19,03,49,16.90
2015,07,19,03,50,16.90
2015,07,19,03,51,16.90
2015,07,19,03,52,16.90
2015,07,19,03,53,16.90
2015,07,19,03,54,16.90
2015,07,19,03,55,16.90
2015,07,19,03,56,16.90
2015,07,19,03,57,16.90
2015,07,19,03,58,16.90
2015,07,19,03,59,16.90
2015,07,19,04,00,16.90
2015,07,19,04,01,16.90
2015,07,19,04,02,16.90
2015,07,19,04,03,16.90
2015,07,19,04,04,16.90
2015,07,19,04,05,16.80
2015,07,19,04,06,16.80
2015,07,19,04,07,16.80
2015,07,19,04,08,16.80
2015,07,19,04,09,16.80
2015,07,19,04,10,16.80
2015,07,19,04,11,16.80
2015,07,19,04,12,16.80
2015,07,19,04,13,16.80
2015,07,19,04,14,16.80
2015,07,19,04,15,16.80
2015,07,19,04,16,16.80
2015,07,19,04,17,16.80
2015,07,19,04,18,16.80
2015,07,19,04,19,16.80
2015,07,19,04,20,16.70
2015,07,19,04,21,16.70
2015,07,19,04,22,16.70
2015,07,19,04,23,16.60
2015,07,19,04,24,16.60
2015,07,19,04,25,16.60
2015,07,19,04,26,16.60
2015,07,19,04,27,16.60
2015,07,19,04,28,16.60
2015,07,19,04,29,16.60
2015,07,19,04,30,16.60
2015,07,19,04,31,16.50
2015,07,19,04,32,16.50
2015,07,19,04,33,16.50
2015,07,19,04,34,16.50
2015,07,19,04,35,16.40
2015,07,19,04,36,16.40
2015,07,19,04,37,16.40
2015,07,19,04,38,16.40
2015,07,19,04,39,16.40
2015,07,19,04,40,16.40
2015,07,19,04,41,16.40
2015,07,19,04,42,16.40
2015,07,19,04,43,16.40
2015,07,19,04,44,16.40
2015,07,19,04,45,16.40
2015,07,19,04,46,16.40
2015,07,19,04,47,16.30
2015,07,19,04,48,16.30
2015,07,19,04,49,16.30
2015,07,19,04,50,16.30
2015,07,19,04,51,16.30
2015,07,19,04,52,16.30
2015,07,19,04,53,16.20
2015,07,19,04,54,16.20
2015,07,19,04,55,16.20
2015,07,19,04,56,16.20
2015,07,19,04,57,16.20
2015,07,19,04,58,16.20
2015,07,19,04,59,16.20
2015,07,19,05,00,16.10
2015,07,19,05,01,16.10
2015,07,19,05,02,16.10
2015,07,19,05,03,16.10
2015,07,19,05,04,16.00
2015,07,19,05,05,16.00
2015,07,19,05,06,16.00
2015,07,19,05,07,16.00
2015,07,19,05,08,15.90
2015,07,19,05,09,15.90
2015,07,19,05,10,15.90
2015,07,19,05,11,15.90
2015,07,19,05,12,15.80
2015,07,19,05,13,15.80
2015,07,19,05,14,15.80
2015,07,19,05,15,15.80
2015,07,19,05,16,15.80
2015,07,19,05,17,15.80
2015,07,19,05,18,15.70
2015,07,19,05,19,15.70
2015,07,19,05,20,15.70
2015,07,19,05,21,15.70
2015,07,19,05,22,15.60
2015,07,19,05,23,15.60
2015,07,19,05,24,15.60
2015,07,19,05,25,15.60
2015,07,19,05,26,15.60
2015,07,19,05,27,15.60
2015,07,19,05,28,15.60
2015,07,19,05,29,15.60
2015,07,19,05,30,15.60
2015,07,19,05,31,15.60
2015,07,19,05,32,15.60
2015,07,19,05,33,15.70
2015,07,19,05,34,15.70
2015,07,19,05,35,15.70
2015,07,19,05,36,15.70
2015,07,19,05,37,15.70
2015,07,19,05,38,15.70
2015,07,19,05,39,15.70
2015,07,19,05,40,15.70
2015,07,19,05,41,15.70
2015,07,19,05,42,15.70
2015,07,19,05,43,15.70
2015,07,19,05,44,15.70
2015,07,19,05,45,15.70
2015,07,19,05,46,15.70
2015,07,19,05,47,15.70
2015,07,19,05,48,15.80
2015,07,19,05,49,15.80
2015,07,19,05,50,15.80
2015,07,19,05,51,15.80
2015,07,19,05,52,15.80
2015,07,19,05,53,15.80
2015,07,19,05,54,15.80
2015,07,19,05,55,15.90
2015,07,19,05,56,15.90
2015,07,19,05,57,15.90
2015,07,19,05,58,15.90
2015,07,19,05,59,15.90
2015,07,19,06,00,16.00
2015,07,19,06,01,16.00
2015,07,19,06,02,16.00
2015,07,19,06,03,16.10
2015,07,19,06,04,16.10
2015,07,19,06,05,16.10
2015,07,19,06,06,16.20
2015,07,19,06,07,16.20
2015,07,19,06,08,16.30
2015,07,19,06,09,16.30
2015,07,19,06,10,16.30
2015,07,19,06,11,16.30
2015,07,19,06,12,16.40
2015,07,19,06,13,16.40
2015,07,19,06,14,16.40
2015,07,19,06,15,16.50
2015,07,19,06,16,16.50
2015,07,19,06,17,16.50
2015,07,19,06,18,16.60
2015,07,19,06,19,16.60
2015,07,19,06,20,16.60
2015,07,19,06,21,16.60
2015,07,19,06,22,16.60
2015,07,19,06,23,16.70
2015,07,19,06,24,16.70
2015,07,19,06,25,16.80
2015,07,19,06,26,16.80
2015,07,19,06,27,16.90
2015,07,19,06,28,16.90
2015,07,19,06,29,17.00
2015,07,19,06,30,17.00
2015,07,19,06,31,17.10
2015,07,19,06,32,17.10
2015,07,19,06,33,17.10
2015,07,19,06,34,17.10
2015,07,19,06,35,17.20
2015,07,19,06,36,17.20
2015,07,19,06,37,17.30
2015,07,19,06,38,17.40
2015,07,19,06,39,17.40
2015,07,19,06,40,17.50
2015,07,19,06,41,17.60
2015,07,19,06,42,17.60
2015,07,19,06,43,17.60
2015,07,19,06,44,17.60
2015,07,19,06,45,17.60
2015,07,19,06,46,17.60
2015,07,19,06,47,17.50
2015,07,19,06,48,17.50
2015,07,19,06,49,17.40
2015,07,19,06,50,17.40
2015,07,19,06,51,17.40
2015,07,19,06,52,17.40
2015,07,19,06,53,17.40
2015,07,19,06,54,17.40
2015,07,19,06,55,17.50
2015,07,19,06,56,17.50
2015,07,19,06,57,17.50
2015,07,19,06,58,17.50
2015,07,19,06,59,17.50
2015,07,19,07,00,17.50
2015,07,19,07,01,17.50
2015,07,19,07,02,17.60
2015,07,19,07,03,17.60
2015,07,19,07,04,17.60
2015,07,19,07,05,17.70
2015,07,19,07,06,17.70
2015,07,19,07,07,17.80
2015,07,19,07,08,17.90
2015,07,19,07,09,17.90
2015,07,19,07,10,18.00
2015,07,19,07,11,18.10
2015,07,19,07,12,18.10
2015,07,19,07,13,18.20
2015,07,19,07,14,18.20
2015,07,19,07,15,18.30
2015,07,19,07,16,18.30
2015,07,19,07,17,18.30
2015,07,19,07,18,18.40
2015,07,19,07,19,18.40
2015,07,19,07,20,18.40
2015,07,19,07,21,18.50
2015,07,19,07,22,18.60
2015,07,19,07,23,18.60
2015,07,19,07,24,18.70
2015,07,19,07,25,18.80
2015,07,19,07,26,18.90
2015,07,19,07,27,19.00
2015,07,19,07,28,19.10
2015,07,19,07,29,19.20
2015,07,19,07,30,19.30
2015,07,19,07,31,19.30
2015,07,19,07,32,19.40
2015,07,19,07,33,19.50
2015,07,19,07,34,19.60
2015,07,19,07,35,19.70
2015,07,19,07,36,19.70
2015,07,19,07,37,19.80
2015,07,19,07,38,19.90
2015,07,19,07,39,19.90
2015,07,19,07,40,19.90
2015,07,19,07,41,19.90
2015,07,19,07,42,19.90
2015,07,19,07,43,20.00
2015,07,19,07,44,20.00
2015,07,19,07,45,20.00
2015,07,19,07,46,20.00
2015,07,19,07,47,19.90
2015,07,19,07,48,19.90
2015,07,19,07,49,19.90
2015,07,19,07,50,19.90
2015,07,19,07,51,19.90
2015,07,19,07,52,19.90
2015,07,19,07,53,19.90
2015,07,19,07,54,19.90
2015,07,19,07,55,19.90
2015,07,19,07,56,19.80
2015,07,19,07,57,19.80
2015,07,19,07,58,19.80
2015,07,19,07,59,19.80
2015,07,19,08,00,19.80
2015,07,19,08,01,19.80
2015,07,19,08,02,19.70
2015,07,19,08,03,19.70
2015,07,19,08,04,19.70
2015,07,19,08,05,19.70
2015,07,19,08,06,19.70
2015,07,19,08,07,19.70
2015,07,19,08,08,19.70
2015,07,19,08,09,19.70
2015,07,19,08,10,19.70
2015,07,19,08,11,19.70
2015,07,19,08,12,19.80
2015,07,19,08,13,19.80
2015,07,19,08,14,19.80
2015,07,19,08,15,19.90
2015,07,19,08,16,19.90
2015,07,19,08,17,19.90
2015,07,19,08,18,20.00
2015,07,19,08,19,20.10
2015,07,19,08,20,20.20
2015,07,19,08,21,20.20
2015,07,19,08,22,20.20
2015,07,19,08,23,20.20
2015,07,19,08,24,20.20
2015,07,19,08,25,20.20
2015,07,19,08,26,20.30
2015,07,19,08,27,20.30
2015,07,19,08,28,20.40
2015,07,19,08,29,20.50
2015,07,19,08,30,20.60
2015,07,19,08,31,20.60
2015,07,19,08,32,20.70
2015,07,19,08,33,20.80
2015,07,19,08,34,20.90
2015,07,19,08,35,21.00
2015,07,19,08,36,21.10
2015,07,19,08,37,21.30
2015,07,19,08,38,21.40
2015,07,19,08,39,21.40
2015,07,19,08,40,21.50
2015,07,19,08,41,21.50
2015,07,19,08,42,21.60
2015,07,19,08,43,21.70
2015,07,19,08,44,21.80
2015,07,19,08,45,21.90
2015,07,19,08,46,22.00
2015,07,19,08,47,22.10
2015,07,19,08,48,22.20
2015,07,19,08,49,22.30
2015,07,19,08,50,22.40
2015,07,19,08,51,22.40
2015,07,19,08,52,22.50
2015,07,19,08,53,22.50
2015,07,19,08,54,22.50
2015,07,19,08,55,22.50
2015,07,19,08,56,22.60
2015,07,19,08,57,22.70
2015,07,19,08,58,22.70
2015,07,19,08,59,22.80
2015,07,19,09,00,22.90
2015,07,19,09,01,22.90
2015,07,19,09,02,22.90
2015,07,19,09,03,22.90
2015,07,19,09,04,22.90
2015,07,19,09,05,22.90
2015,07,19,09,06,22.90
2015,07,19,09,07,23.00
2015,07,19,09,08,23.00
2015,07,19,09,09,23.10
2015,07,19,09,10,23.10
2015,07,19,09,11,23.00
2015,07,19,09,12,23.00
2015,07,19,09,13,23.00
2015,07,19,09,14,23.00
2015,07,19,09,15,23.00
2015,07,19,09,16,23.00
2015,07,19,09,17,23.00
2015,07,19,09,18,22.90
2015,07,19,09,19,22.90
2015,07,19,09,20,22.90
2015,07,19,09,21,22.90
2015,07,19,09,22,22.80
2015,07,19,09,23,22.70
2015,07,19,09,24,22.60
2015,07,19,09,25,22.60
2015,07,19,09,26,22.50
2015,07,19,09,27,22.60
2015,07,19,09,28,22.60
2015,07,19,09,29,22.60
2015,07,19,09,30,22.70
2015,07,19,09,31,22.70
2015,07,19,09,32,22.70
2015,07,19,09,33,22.70
2015,07,19,09,34,22.70
2015,07,19,09,35,22.70
2015,07,19,09,36,22.80
2015,07,19,09,37,23.00
2015,07,19,09,38,23.00
2015,07,19,09,39,23.00
2015,07,19,09,40,23.10
2015,07,19,09,41,23.00
2015,07,19,09,42,23.00
2015,07,19,09,43,23.10
2015,07,19,09,44,23.10
2015,07,19,09,45,23.20
2015,07,19,09,46,23.20
2015,07,19,09,47,23.20
2015,07,19,09,48,23.30
2015,07,19,09,49,23.20
2015,07,19,09,50,23.20
2015,07,19,09,51,23.20
2015,07,19,09,52,23.10
2015,07,19,09,53,23.10
2015,07,19,09,54,23.10
2015,07,19,09,55,23.00
2015,07,19,09,56,22.90
2015,07,19,09,57,22.80
2015,07,19,09,58,22.70
2015,07,19,09,59,22.70
2015,07,19,10,00,22.70
2015,07,19,10,01,22.70
2015,07,19,10,02,22.70
2015,07,19,10,03,22.70
2015,07,19,10,04,22.70
2015,07,19,10,05,22.70
2015,07,19,10,06,22.70
2015,07,19,10,07,22.80
2015,07,19,10,08,22.80
2015,07,19,10,09,22.90
2015,07,19,10,10,22.90
2015,07,19,10,11,22.90
2015,07,19,10,12,22.80
2015,07,19,10,13,22.80
2015,07,19,10,14,22.70
2015,07,19,10,15,22.60
2015,07,19,10,16,22.60
2015,07,19,10,17,22.60
2015,07,19,10,18,22.70
2015,07,19,10,19,22.70
2015,07,19,10,20,22.70
2015,07,19,10,21,22.70
2015,07,19,10,22,22.70
2015,07,19,10,23,22.70
2015,07,19,10,24,22.80
2015,07,19,10,25,22.90
2015,07,19,10,26,23.00
2015,07,19,10,27,23.00
2015,07,19,10,28,23.10
2015,07,19,10,29,23.20
2015,07,19,10,30,23.30
2015,07,19,10,31,23.40
2015,07,19,10,32,23.50
2015,07,19,10,33,23.50
2015,07,19,10,34,23.40
2015,07,19,10,35,23.30
2015,07,19,10,36,23.30
2015,07,19,10,37,23.30
2015,07,19,10,38,23.30
2015,07,19,10,39,23.30
2015,07,19,10,40,23.30
2015,07,19,10,41,23.40
2015,07,19,10,42,23.50
2015,07,19,10,43,23.50
2015,07,19,10,44,23.50
2015,07,19,10,45,23.50
2015,07,19,10,46,23.50
2015,07,19,10,47,23.60
2015,07,19,10,48,23.60
2015,07,19,10,49,23.60
2015,07,19,10,50,23.60
2015,07,19,10,51,23.50
2015,07,19,10,52,23.50
2015,07,19,10,53,23.40
2015,07,19,10,54,23.40
2015,07,19,10,55,23.40
2015,07,19,10,56,23.50
2015,07,19,10,57,23.50
2015,07,19,10,58,23.50
2015,07,19,10,59,23.50
2015,07,19,11,00,23.50
2015,07,19,11,01,23.60
2015,07,19,11,02,23.60
2015,07,19,11,03,23.60
2015,07,19,11,04,23.60
2015,07,19,11,05,23.60
2015,07,19,11,06,23.60
2015,07,19,11,07,23.70
2015,07,19,11,08,23.80
2015,07,19,11,09,23.90
2015,07,19,11,10,23.80
2015,07,19,11,11,23.90
2015,07,19,11,12,23.90
2015,07,19,11,13,23.90
2015,07,19,11,14,23.90
2015,07,19,11,15,23.90
2015,07,19,11,16,23.90
2015,07,19,11,17,24.00
2015,07,19,11,18,24.10
2015,07,19,11,19,24.10
2015,07,19,11,20,24.20
2015,07,19,11,21,24.20
2015,07,19,11,22,24.20
2015,07,19,11,23,24.20
2015,07,19,11,24,24.20
2015,07,19,11,25,24.30
2015,07,19,11,26,24.20
2015,07,19,11,27,24.10
2015,07,19,11,28,24.10
2015,07,19,11,29,24.10
2015,07,19,11,30,24.10
2015,07,19,11,31,24.20
2015,07,19,11,32,24.30
2015,07,19,11,33,24.40
2015,07,19,11,34,24.40
2015,07,19,11,35,24.40
2015,07,19,11,36,24.40
2015,07,19,11,37,24.30
2015,07,19,11,38,24.30
2015,07,19,11,39,24.20
2015,07,19,11,40,24.10
2015,07,19,11,41,24.10
2015,07,19,11,42,24.10
2015,07,19,11,43,24.00
2015,07,19,11,44,23.90
2015,07,19,11,45,23.90
2015,07,19,11,46,23.90
2015,07,19,11,47,24.00
2015,07,19,11,48,23.90
2015,07,19,11,49,23.90
2015,07,19,11,50,23.80
2015,07,19,11,51,23.80
2015,07,19,11,52,23.80
2015,07,19,11,53,23.80
2015,07,19,11,54,23.80
2015,07,19,11,55,23.80
2015,07,19,11,56,23.80
2015,07,19,11,57,23.70
2015,07,19,11,58,23.80
2015,07,19,11,59,23.80
2015,07,19,12,00,23.90
2015,07,19,12,01,24.00
2015,07,19,12,02,24.10
2015,07,19,12,03,24.20
2015,07,19,12,04,24.20
2015,07,19,12,05,24.10
2015,07,19,12,06,24.10
2015,07,19,12,07,24.10
2015,07,19,12,08,24.00
2015,07,19,12,09,23.80
2015,07,19,12,10,23.80
2015,07,19,12,11,23.70
2015,07,19,12,12,23.60
2015,07,19,12,13,23.70
2015,07,19,12,14,23.80
2015,07,19,12,15,23.90
2015,07,19,12,16,24.10
2015,07,19,12,17,24.20
2015,07,19,12,18,24.20
2015,07,19,12,19,24.20
2015,07,19,12,20,24.20
2015,07,19,12,21,24.20
2015,07,19,12,22,24.20
2015,07,19,12,23,24.20
2015,07,19,12,24,24.10
2015,07,19,12,25,24.10
2015,07,19,12,26,24.00
2015,07,19,12,27,24.00
2015,07,19,12,28,24.00
2015,07,19,12,29,24.00
2015,07,19,12,30,23.90
2015,07,19,12,31,23.80
2015,07,19,12,32,23.80
2015,07,19,12,33,23.90
2015,07,19,12,34,23.90
2015,07,19,12,35,24.00
2015,07,19,12,36,24.00
2015,07,19,12,37,24.10
2015,07,19,12,38,24.10
2015,07,19,12,39,24.20
2015,07,19,12,40,24.20
2015,07,19,12,41,24.10
2015,07,19,12,42,24.00
2015,07,19,12,43,23.90
2015,07,19,12,44,23.80
2015,07,19,12,45,23.80
2015,07,19,12,46,23.70
2015,07,19,12,47,23.70
2015,07,19,12,48,23.70
2015,07,19,12,49,23.70
2015,07,19,12,50,23.80
2015,07,19,12,51,24.00
2015,07,19,12,52,24.00
2015,07,19,12,53,24.10
2015,07,19,12,54,24.10
2015,07,19,12,55,24.20
2015,07,19,12,56,24.20
2015,07,19,12,57,24.30
2015,07,19,12,58,24.30
2015,07,19,12,59,24.30
2015,07,19,13,00,24.30
2015,07,19,13,01,24.30
2015,07,19,13,02,24.30
2015,07,19,13,03,24.30
2015,07,19,13,04,24.40
2015,07,19,13,05,24.50
2015,07,19,13,06,24.60
2015,07,19,13,07,24.60
2015,07,19,13,08,24.60
2015,07,19,13,09,24.70
2015,07,19,13,10,24.80
2015,07,19,13,11,24.90
2015,07,19,13,12,24.90
2015,07,19,13,13,25.00
2015,07,19,13,14,25.10
2015,07,19,13,15,25.10
2015,07,19,13,16,24.90
2015,07,19,13,17,24.80
2015,07,19,13,18,24.70
2015,07,19,13,19,24.60
2015,07,19,13,20,24.60
2015,07,19,13,21,24.60
2015,07,19,13,22,24.70
2015,07,19,13,23,24.70
2015,07,19,13,24,24.70
2015,07,19,13,25,24.80
2015,07,19,13,26,24.80
2015,07,19,13,27,24.90
2015,07,19,13,28,24.90
2015,07,19,13,29,24.90
2015,07,19,13,30,24.90
2015,07,19,13,31,24.80
2015,07,19,13,32,24.70
2015,07,19,13,33,24.70
2015,07,19,13,34,24.70
2015,07,19,13,35,24.60
2015,07,19,13,36,24.50
2015,07,19,13,37,24.50
2015,07,19,13,38,24.50
2015,07,19,13,39,24.60
2015,07,19,13,40,24.60
2015,07,19,13,41,24.60
2015,07,19,13,42,24.60
2015,07,19,13,43,24.60
2015,07,19,13,44,24.50
2015,07,19,13,45,24.50
2015,07,19,13,46,24.50
2015,07,19,13,47,24.50
2015,07,19,13,48,24.60
2015,07,19,13,49,24.60
2015,07,19,13,50,24.60
2015,07,19,13,51,24.70
2015,07,19,13,52,24.80
2015,07,19,13,53,24.80
2015,07,19,13,54,24.80
2015,07,19,13,55,24.80
2015,07,19,13,56,24.80
2015,07,19,13,57,24.80
2015,07,19,13,58,24.90
2015,07,19,13,59,25.00
2015,07,19,14,00,25.00
2015,07,19,14,01,25.10
2015,07,19,14,02,25.20
2015,07,19,14,03,25.30
2015,07,19,14,04,25.40
2015,07,19,14,05,25.40
2015,07,19,14,06,25.50
2015,07,19,14,07,25.60
2015,07,19,14,08,25.60
2015,07,19,14,09,25.60
2015,07,19,14,10,25.60
2015,07,19,14,11,25.70
2015,07,19,14,12,25.70
2015,07,19,14,13,25.70
2015,07,19,14,14,25.70
2015,07,19,14,15,25.70
2015,07,19,14,16,25.80
2015,07,19,14,17,25.80
2015,07,19,14,18,25.90
2015,07,19,14,19,26.00
2015,07,19,14,20,26.00
2015,07,19,14,21,26.00
2015,07,19,14,22,26.00
2015,07,19,14,23,26.10
2015,07,19,14,24,26.20
2015,07,19,14,25,26.20
2015,07,19,14,26,26.30
2015,07,19,14,27,26.30
2015,07,19,14,28,26.30
2015,07,19,14,29,26.30
2015,07,19,14,30,26.20
2015,07,19,14,31,26.20
2015,07,19,14,32,26.20
2015,07,19,14,33,26.10
2015,07,19,14,34,26.10
2015,07,19,14,35,26.10
2015,07,19,14,36,26.20
2015,07,19,14,37,26.10
2015,07,19,14,38,26.10
2015,07,19,14,39,26.10
2015,07,19,14,40,26.10
2015,07,19,14,41,26.20
2015,07,19,14,42,26.20
2015,07,19,14,43,26.20
2015,07,19,14,44,26.20
2015,07,19,14,45,26.20
2015,07,19,14,46,26.10
2015,07,19,14,47,26.20
2015,07,19,14,48,26.20
2015,07,19,14,49,26.30
2015,07,19,14,50,26.30
2015,07,19,14,51,26.30
2015,07,19,14,52,26.40
2015,07,19,14,53,26.40
2015,07,19,14,54,26.30
2015,07,19,14,55,26.30
2015,07,19,14,56,26.30
2015,07,19,14,57,26.30
2015,07,19,14,58,26.30
2015,07,19,14,59,26.20
2015,07,19,15,00,26.10
2015,07,19,15,01,26.10
2015,07,19,15,02,26.10
2015,07,19,15,03,26.10
2015,07,19,15,04,26.10
2015,07,19,15,05,26.20
2015,07,19,15,06,26.20
2015,07,19,15,07,26.20
2015,07,19,15,08,26.20
2015,07,19,15,09,26.20
2015,07,19,15,10,26.30
2015,07,19,15,11,26.40
2015,07,19,15,12,26.40
2015,07,19,15,13,26.40
2015,07,19,15,14,26.40
2015,07,19,15,15,26.40
2015,07,19,15,16,26.30
2015,07,19,15,17,26.20
2015,07,19,15,18,26.10
2015,07,19,15,19,26.00
2015,07,19,15,20,25.80
2015,07,19,15,21,25.80
2015,07,19,15,22,25.80
2015,07,19,15,23,25.70
2015,07,19,15,24,25.70
2015,07,19,15,25,25.80
2015,07,19,15,26,25.80
2015,07,19,15,27,25.90
2015,07,19,15,28,25.90
2015,07,19,15,29,25.90
2015,07,19,15,30,25.90
2015,07,19,15,31,25.90
2015,07,19,15,32,26.00
2015,07,19,15,33,26.10
2015,07,19,15,34,26.10
2015,07,19,15,35,26.20
2015,07,19,15,36,26.20
2015,07,19,15,37,26.30
2015,07,19,15,38,26.40
2015,07,19,15,39,26.30
2015,07,19,15,40,26.30
2015,07,19,15,41,26.40
2015,07,19,15,42,26.40
2015,07,19,15,43,26.50
2015,07,19,15,44,26.50
2015,07,19,15,45,26.50
2015,07,19,15,46,26.50
2015,07,19,15,47,26.40
2015,07,19,15,48,26.50
2015,07,19,15,49,26.50
2015,07,19,15,50,26.60
2015,07,19,15,51,26.60
2015,07,19,15,52,26.70
2015,07,19,15,53,26.70
2015,07,19,15,54,26.70
2015,07,19,15,55,26.70
2015,07,19,15,56,26.60
2015,07,19,15,57,26.70
2015,07,19,15,58,26.70
2015,07,19,15,59,26.70
2015,07,19,16,00,26.80
2015,07,19,16,01,26.70
2015,07,19,16,02,26.70
2015,07,19,16,03,26.60
2015,07,19,16,04,26.50
2015,07,19,16,05,26.40
2015,07,19,16,06,26.40
2015,07,19,16,07,26.30
2015,07,19,16,08,26.30
2015,07,19,16,09,26.30
2015,07,19,16,10,26.20
2015,07,19,16,11,26.20
2015,07,19,16,12,26.10
2015,07,19,16,13,26.00
2015,07,19,16,14,25.80
2015,07,19,16,15,25.70
2015,07,19,16,16,25.70
2015,07,19,16,17,25.60
2015,07,19,16,18,25.60
2015,07,19,16,19,25.60
2015,07,19,16,20,25.70
2015,07,19,16,21,25.70
2015,07,19,16,22,25.80
2015,07,19,16,23,25.90
2015,07,19,16,24,26.00
2015,07,19,16,25,26.10
2015,07,19,16,26,26.20
2015,07,19,16,27,26.20
2015,07,19,16,28,26.20
2015,07,19,16,29,26.30
2015,07,19,16,30,26.30
2015,07,19,16,31,26.20
2015,07,19,16,32,26.20
2015,07,19,16,33,26.10
2015,07,19,16,34,26.10
2015,07,19,16,35,26.10
2015,07,19,16,36,26.10
2015,07,19,16,37,26.10
2015,07,19,16,38,26.10
2015,07,19,16,39,26.20
2015,07,19,16,40,26.30
2015,07,19,16,41,26.30
2015,07,19,16,42,26.20
2015,07,19,16,43,26.20
2015,07,19,16,44,26.20
2015,07,19,16,45,26.20
2015,07,19,16,46,26.20
2015,07,19,16,47,26.10
2015,07,19,16,48,26.10
2015,07,19,16,49,26.00
2015,07,19,16,50,26.00
2015,07,19,16,51,26.00
2015,07,19,16,52,26.00
2015,07,19,16,53,25.90
2015,07,19,16,54,25.80
2015,07,19,16,55,25.70
2015,07,19,16,56,25.70
2015,07,19,16,57,25.70
2015,07,19,16,58,25.80
2015,07,19,16,59,25.80
2015,07,19,17,00,25.70
2015,07,19,17,01,25.80
2015,07,19,17,02,25.80
2015,07,19,17,03,25.80
2015,07,19,17,04,25.80
2015,07,19,17,05,25.90
2015,07,19,17,06,25.90
2015,07,19,17,07,25.80
2015,07,19,17,08,25.80
2015,07,19,17,09,25.80
2015,07,19,17,10,25.70
2015,07,19,17,11,25.80
2015,07,19,17,12,25.80
2015,07,19,17,13,25.80
2015,07,19,17,14,25.70
2015,07,19,17,15,25.70
2015,07,19,17,16,25.70
2015,07,19,17,17,25.70
2015,07,19,17,18,25.70
2015,07,19,17,19,25.80